Location: Napier
(39.4830°S, 176.9170°E)
Time: 15:12:49
(UTC+13:00)

ISS - Visible Passes

Search period start: 14 December 2019 00:00
Search period end: 24 December 2019 00:00
Orbit: 411 x 421 km, 51.6° (Epoch: 14 December)

Date Brightness Start Highest point End Pass type
(mag) Time Alt. Az. Time Alt. Az. Time Alt. Az.
14 Dec -0.4 01:34:03 10° SW 01:35:46 13° SSW 01:37:30 10° SSE visible
14 Dec -0.3 03:12:18 10° SSW 03:13:43 12° S 03:15:08 10° SSE visible
14 Dec -1.5 04:48:15 10° SW 04:51:20 30° SSE 04:54:23 10° E visible
14 Dec-0.921:36:16E21:36:16E21:29:56Nvisible
14 Dec -3.3 23:08:27 34° WNW 23:09:43 64° SW 23:13:09 10° SE visible
15 Dec -0.6 00:44:49 10° WSW 00:47:01 16° SSW 00:49:13 10° SSE visible
15 Dec -0.2 02:23:50 10° SSW 02:24:55 11° S 02:25:59 10° SSE visible
15 Dec -0.9 03:59:57 10° SSW 04:02:41 21° SSE 04:05:24 10° ESE visible
15 Dec -3.9 22:17:50 10° NW 22:21:13 73° NE 22:24:40 10° SE visible
15 Dec -0.9 23:55:38 10° WSW 23:58:17 20° SSW 00:00:57 10° SSE visible
16 Dec -0.1 01:35:03 10° SSW 01:36:05 11° S 01:37:07 10° SSE visible
16 Dec -0.5 03:11:39 10° SSW 03:13:58 17° SSE 03:16:15 10° ESE visible
16 Dec -3.4 04:47:47 10° SW 04:51:13 73° SE 04:54:35 10° ENE visible
16 Dec -3.3 21:29:34 10° NNW 21:32:47 39° NE 21:36:02 10° ESE visible
16 Dec -1.5 23:06:35 10° W 23:09:36 28° SSW 23:12:38 10° SE visible
17 Dec -0.1 00:45:54 10° SSW 00:47:15 12° S 00:48:36 10° SSE visible
17 Dec -0.3 02:23:21 10° SSW 02:25:11 14° SSE 02:27:00 10° SE visible
17 Dec -2.4 03:59:20 10° SW 04:02:38 43° SSE 04:05:54 10° ENE visible
17 Dec -2.3 22:17:41 10° WNW 22:20:58 41° SSW 22:24:16 10° SE visible
17 Dec -0.3 23:56:37 10° SW 23:58:26 13° SSW 00:00:14 10° SSE visible
18 Dec -0.1 01:35:00 10° SSW 01:36:22 12° S 01:37:44 10° SSE visible
18 Dec -1.5 03:10:58 10° SW 03:14:00 28° SSE 03:17:01 10° E visible
18 Dec -3.2 04:47:36 10° WSW 04:50:48 37° NW 04:53:57 10° NNE visible
18 Dec -3.3 21:28:58 10° WNW 21:32:23 70° SW 21:35:50 10° SE visible
18 Dec -0.5 23:07:21 10° WSW 23:09:38 16° SSW 23:11:55 10° SSE visible
19 Dec -0.1 00:46:27 10° SSW 00:47:31 11° S 00:48:34 10° SSE visible
19 Dec -1.0 02:22:37 10° SSW 02:25:18 21° SSE 02:27:58 10° ESE visible
19 Dec -3.9 03:58:56 10° WSW 04:02:21 69° NW 04:05:43 10° NE visible
19 Dec -0.9 22:18:09 10° WSW 22:20:52 21° SSW 22:23:35 10° SSE visible
19 Dec -0.2 23:57:34 10° SSW 23:58:38 11° S 23:59:43 10° SSE visible
20 Dec -0.6 01:34:18 10° SSW 01:36:32 16° SSE 01:38:46 10° ESE visible
20 Dec -3.4 03:10:23 10° SW 03:13:48 67° SE 03:17:11 10° ENE visible
20 Dec -1.9 04:48:30 10° W 04:50:08 13° NW 04:51:46 10° NNW visible
20 Dec -1.4 21:29:05 10° W 21:32:09 29° SSW 21:35:14 10° SE visible
20 Dec -0.3 23:08:21 10° SSW 23:09:46 12° S 23:11:11 10° SSE visible
21 Dec -0.4 00:45:56 10° SSW 00:47:43 13° SSE 00:49:28 10° SE visible
21 Dec -2.2 02:21:55 10° SW 02:24:37 36° S 02:24:37 36° S visible
21 Dec -0.5 22:19:01 10° SW 22:20:54 14° SSW 22:22:48 10° SSE visible
21 Dec -0.4 23:57:31 10° SSW 23:58:50 12° S 00:00:10 10° SSE visible
22 Dec -1.5 01:33:30 10° SSW 01:36:06 26° SSE 01:36:06 26° SSE visible
22 Dec -0.7 21:29:43 10° WSW 21:32:04 17° SSW 21:34:26 10° SSE visible
22 Dec -0.4 23:08:54 10° SSW 23:09:56 11° S 23:10:59 10° SSE visible
23 Dec -1.2 00:45:08 10° SSW 00:47:45 20° SSE 00:48:18 19° SE visible
23 Dec -0.4 22:19:54 10° SSW 22:21:01 11° S 22:22:09 10° SSE visible
